Date,Installs,Update checks
2023-06-25,0,23
2023-06-26,1,53
2023-06-27,0,45
2023-06-28,2,50
2023-06-29,1,54
2023-06-30,0,49
2023-07-01,1,43
2023-07-02,0,47
2023-07-03,3,59
2023-07-04,4,45
2023-07-05,0,55
2023-07-06,1,51
2023-07-07,1,57
2023-07-08,2,52
2023-07-09,4,49
2023-07-10,3,61
2023-07-11,0,54
2023-07-12,1,48
2023-07-13,1,55
2023-07-14,2,56
2023-07-15,1,59
2023-07-16,0,50
2023-07-17,1,58
2023-07-18,2,57
2023-07-19,1,46
2023-07-20,0,58
2023-07-21,0,64
2023-07-22,0,48
2023-07-23,0,46
2023-07-24,2,57
2023-07-25,4,48
2023-07-26,3,55
2023-07-27,1,44
2023-07-28,2,48
2023-07-29,2,48
2023-07-30,0,51
2023-07-31,0,53
2023-08-01,1,58
2023-08-02,1,55
2023-08-03,1,51
2023-08-04,0,52
2023-08-05,1,48
2023-08-06,2,49
2023-08-07,2,59
2023-08-08,0,59
2023-08-09,0,59
2023-08-10,2,56
2023-08-11,1,49
2023-08-12,0,53
2023-08-13,2,50
2023-08-14,0,54
2023-08-15,0,48
2023-08-16,0,56
2023-08-17,2,61
2023-08-18,1,53
2023-08-19,1,52
2023-08-20,0,51
2023-08-21,0,55
2023-08-22,0,66
2023-08-23,1,61
2023-08-24,0,65
2023-08-25,1,47
2023-08-26,3,61
2023-08-27,3,61
2023-08-28,3,66
2023-08-29,1,54
2023-08-30,0,65
2023-08-31,0,50
2023-09-01,0,56
2023-09-02,1,55
2023-09-03,2,44
2023-09-04,0,51
2023-09-05,0,59
2023-09-06,1,45
2023-09-07,0,56
2023-09-08,0,50
2023-09-09,0,48
2023-09-10,1,48
2023-09-11,1,60
2023-09-12,2,53
2023-09-13,0,63
2023-09-14,1,68
2023-09-15,1,56
2023-09-16,1,52
2023-09-17,1,60
2023-09-18,1,69
2023-09-19,2,53
2023-09-20,3,54
2023-09-21,2,61
2023-09-22,1,51
2023-09-23,1,54
2023-09-24,1,53
2023-09-25,1,63
2023-09-26,0,63
2023-09-27,0,67
2023-09-28,2,65
2023-09-29,1,60
2023-09-30,4,55
2023-10-01,3,53
2023-10-02,1,64
2023-10-03,1,67
2023-10-04,0,60
2023-10-05,1,66
2023-10-06,1,58
2023-10-07,3,62
2023-10-08,3,58
2023-10-09,1,70
2023-10-10,1,63
2023-10-11,0,66
2023-10-12,0,67
2023-10-13,1,58
2023-10-14,1,48
2023-10-15,1,64
2023-10-16,2,64
2023-10-17,3,62
2023-10-18,0,70
2023-10-19,1,65
2023-10-20,2,53
2023-10-21,1,62
2023-10-22,1,62
2023-10-23,2,65
2023-10-24,1,65
2023-10-25,1,60
2023-10-26,1,66
2023-10-27,1,60
2023-10-28,2,67
2023-10-29,2,49
2023-10-30,0,55
2023-10-31,0,53
2023-11-01,2,62
2023-11-02,0,57
2023-11-03,0,65
2023-11-04,1,57
2023-11-05,0,57
2023-11-06,0,53
2023-11-07,1,64
2023-11-08,0,53
2023-11-09,1,59
2023-11-10,1,63
2023-11-11,1,63
2023-11-12,2,51
2023-11-13,1,65
2023-11-14,1,60
2023-11-15,0,62
2023-11-16,2,55
2023-11-17,1,60
2023-11-18,1,65
2023-11-19,1,70
2023-11-20,2,60
2023-11-21,0,60
2023-11-22,0,64
2023-11-23,0,56
2023-11-24,2,69
2023-11-25,2,58
2023-11-26,4,61
2023-11-27,2,64
2023-11-28,1,64
2023-11-29,0,62
2023-11-30,0,66
2023-12-01,2,62
2023-12-02,1,61
2023-12-03,2,21
2023-12-04,1,27
2023-12-05,2,18
2023-12-06,2,19
2023-12-07,1,11
2023-12-08,1,25
2023-12-09,0,22
2023-12-10,4,19
2023-12-11,3,20
2023-12-12,0,19
2023-12-13,2,19
2023-12-14,2,24
2023-12-15,4,19
2023-12-16,2,24
2023-12-17,1,26
2023-12-18,0,21
2023-12-19,0,21
2023-12-20,0,20
2023-12-21,0,19
2023-12-22,0,21
2023-12-23,1,24
2023-12-24,0,26
2023-12-25,2,19
2023-12-26,2,20
2023-12-27,1,17
2023-12-28,2,22
2023-12-29,0,20
2023-12-30,1,19
2023-12-31,0,18
2024-01-01,0,16
2024-01-02,0,27
2024-01-03,1,21
2024-01-04,3,19
2024-01-05,0,21
2024-01-06,1,24
2024-01-07,2,20
2024-01-08,2,28
2024-01-09,0,24
2024-01-10,2,23
2024-01-11,0,23
2024-01-12,1,21
2024-01-13,3,23
2024-01-14,0,25
2024-01-15,0,24
2024-01-16,0,20
2024-01-17,1,21
2024-01-18,1,34
2024-01-19,1,21
2024-01-20,0,22
2024-01-21,4,24
2024-01-22,4,26
2024-01-23,1,32
2024-01-24,1,26
2024-01-25,0,23
2024-01-26,0,29
2024-01-27,0,33
2024-01-28,1,28
2024-01-29,2,30
2024-01-30,0,27
2024-01-31,1,25
2024-02-01,0,32
2024-02-02,0,28
2024-02-03,0,29
2024-02-04,0,31
2024-02-05,0,31
2024-02-06,0,29
2024-02-07,2,32
2024-02-08,1,29
2024-02-09,3,41
2024-02-10,2,35
2024-02-11,0,27
2024-02-12,3,32
2024-02-13,3,38
2024-02-14,0,44
2024-02-15,0,32
2024-02-16,3,29
2024-02-17,2,37
2024-02-18,3,27
2024-02-19,1,38
2024-02-20,2,26
2024-02-21,0,33
2024-02-22,4,32
2024-02-23,2,33
2024-02-24,3,36
2024-02-25,1,36
2024-02-26,0,37
2024-02-27,1,35
2024-02-28,1,42
2024-02-29,3,35
2024-03-01,0,33
2024-03-02,0,31
2024-03-03,0,32
2024-03-04,1,38
2024-03-05,1,29
2024-03-06,0,34
2024-03-07,0,35
2024-03-08,0,37
2024-03-09,3,28
2024-03-10,0,34
2024-03-11,0,39
2024-03-12,1,28
2024-03-13,4,32
2024-03-14,1,34
2024-03-15,3,32
2024-03-16,1,34
2024-03-17,1,33
2024-03-18,2,39
2024-03-19,1,34
2024-03-20,2,45
2024-03-21,1,33
2024-03-22,2,39
2024-03-23,3,39
2024-03-24,4,39
2024-03-25,0,36
2024-03-26,2,35
2024-03-27,3,38
2024-03-28,2,43
2024-03-29,1,35
2024-03-30,0,39
2024-03-31,1,46
2024-04-01,4,38
2024-04-02,0,43
2024-04-03,0,46
2024-04-04,1,47
2024-04-05,2,47
2024-04-06,2,40
2024-04-07,0,39
2024-04-08,0,40
2024-04-09,0,47
2024-04-10,0,48
2024-04-11,4,44
2024-04-12,0,49
2024-04-13,0,49
2024-04-14,3,46
2024-04-15,1,58
2024-04-16,0,47
2024-04-17,2,54
2024-04-18,3,47
2024-04-19,3,51
2024-04-20,3,47
2024-04-21,0,47
2024-04-22,2,52
2024-04-23,5,53
2024-04-24,2,47
2024-04-25,3,54
2024-04-26,1,55
2024-04-27,1,55
2024-04-28,0,57
2024-04-29,1,51
2024-04-30,1,54
2024-05-01,0,54
2024-05-02,2,43
2024-05-03,1,52
2024-05-04,0,55
2024-05-05,0,55
2024-05-06,2,51
2024-05-07,1,50
2024-05-08,2,47
2024-05-09,1,54
2024-05-10,1,56
2024-05-11,0,49
2024-05-12,0,0
